Flag for Canada Weather past 2 weeks in Sarnia, Ontario, Canada

Now
43 °F

Sunny.


Feels Like: 38 °F
Forecast: 36 / 70 °F
Wind: 8 mph from Northeast

Location: Sarnia Airport

Current Time: May 22, 2015 at 9:44:21 PM

Latest Report: May 22, 2015 at 9:00 PM


Visibility: 9 mi

Pressure: 30.32 "Hg

Humidity: 49%

Dew point: 25 °F

Location of SarniaLocation

Historic Weather in Sarnia — Graph

°F

Sarnia temperature yesterday

Maximum temperature yesterday: 64 °F (at 2:00 PM)
Minimum temperature yesterday: 48 °F (at 12:00 AM)
Average temperature yesterday: 57 °F

Past Weeks' High & Low Weather Summary

 TemperatureHumidityPressure
High86 °F (May 8, 3:00 PM)100% (May 9, 6:00 AM)30.51 "Hg (May 9, 6:00 AM)
Low32 °F (May 14, 5:00 AM)27% (May 8, 3:00 PM)29.76 "Hg (May 11, 8:00 PM)
Average57 °F72%30.08 "Hg
* Reported May 7 8:00 PM — May 22 8:00 PM, Sarnia, Weather by CustomWeather, © 2015

Note: Actual official high and low records may vary slightly from our data, if they occured in-between our weather recording intervals... More about our weather records

Advertising

Sarnia weather history for previous 24 hours

 ConditionsComfort  
Time TempWeatherWind HumidityBarometerVisibility
8:00 PM
Fri, May 22
45 °FSunny.14 mph42%30.31 "Hg9 mi
7:00 PM46 °FSunny.18 mph40%30.29 "Hg9 mi
6:00 PM48 °FSunny.17 mph37%30.29 "Hg9 mi
5:00 PM50 °FSunny.18 mph40%30.27 "Hg9 mi
4:00 PM50 °FSunny.21 mph43%30.26 "Hg9 mi
3:00 PM52 °FSunny.22 mph41%30.25 "Hg9 mi
2:00 PM50 °FSunny.17 mph54%30.23 "Hg9 mi
1:00 PM50 °FSunny.17 mph50%30.21 "Hg9 mi
12:00 PM48 °FSunny.16 mph62%30.20 "Hg9 mi
11:00 AM48 °FSunny.17 mph66%30.18 "Hg9 mi
10:00 AM46 °FSunny.21 mph76%30.15 "Hg9 mi
9:00 AM50 °FSunny.16 mph54%30.11 "Hg9 mi
8:00 AM48 °FSunny.16 mph50%30.09 "Hg9 mi
7:00 AM46 °FSunny.13 mph62%30.07 "Hg9 mi
6:00 AM45 °FPassing clouds.5 mph71%30.04 "Hg9 mi
5:00 AM45 °FPassing clouds.3 mph71%30.02 "Hg9 mi
4:00 AM43 °FPassing clouds.2 mph71%30.01 "Hg9 mi
3:00 AM46 °FPassing clouds.5 mph66%30.01 "Hg9 mi
2:00 AM46 °FPassing clouds.8 mph62%29.99 "Hg9 mi
1:00 AM48 °FPassing clouds.14 mph62%29.98 "Hg9 mi
12:00 AM57 °FMostly cloudy.10 mph44%29.95 "Hg9 mi
11:00 PM
Thu, May 21
59 °FPassing clouds.12 mph39%29.94 "Hg9 mi
10:00 PM59 °FPassing clouds.8 mph39%29.93 "Hg9 mi
9:00 PM61 °FScattered clouds.9 mph36%29.91 "Hg9 mi
Weather by CustomWeather, © 2015

See weather overviewHow to use our weather pages